• Join FlightAware (Why Join?)
  • Login
  • US Flag 
11:22PM EDT


 

Airport Tracker/Info


-or-


 

Live Flight TrackerFlight Track Log ✈ A6-EDY ✈ 10-Apr-2013 ✈ OMDB / DXB - LFPG / CDG

Flight Track Log - Related Links

Times and Time Zones

All times are in EDT time to prevent confusion due to time zone crossing. See the A6-EDY flight status page for this flight to view local times or setup timezone preferences in your user account.

Time Position Orientation Groundspeed Altitude Reporting Facility
EDT Latitude Longitude Course Direction KTS MPH feet Rate Location/Type
12:49AM 25.2590 55.3600 304° West 150 173 100  Level FlightAware
12:50AM 25.2690 55.3430 303° West 166 191 600 1,260 Climbing FlightAware
12:50AM 25.2880 55.3090 302° West 177 204 1,600 1,200 Climbing FlightAware
12:51AM 25.2920 55.2960 289° West 192 221 1,800 900 Climbing FlightAware
12:51AM 25.2970 55.2680 281° West 230 265 2,200 1,260 Climbing FlightAware
12:52AM 25.3040 55.2320 282° West 262 302 3,000 840 Climbing FlightAware
12:52AM 25.3090 55.2030 281° West 262 302 3,000 2,520 Level FlightAware
12:53AM 25.3290 55.0870 281° West 328 377 6,800 3,180 Climbing FlightAware
12:54AM 25.3400 55.0280 282° West 342 394 8,300 2,580 Climbing FlightAware
12:54AM 25.3540 54.9460 281° West 353 406 10,300 2,400 Climbing FlightAware
12:55AM 25.3660 54.8760 281° West 368 423 11,700 2,400 Climbing FlightAware
12:56AM 25.3810 54.7900 281° West 369 425 13,700 2,460 Climbing FlightAware
12:56AM 25.3990 54.7160 285° West 377 434 15,200 2,280 Climbing FlightAware
12:57AM 25.4170 54.6430 285° West 381 438 16,800 2,220 Climbing FlightAware
12:58AM 25.4390 54.5550 285° West 388 447 18,400 1,920 Climbing FlightAware
12:59AM 25.4580 54.4770 285° West 396 456 19,600 1,680 Climbing FlightAware
12:59AM 25.4790 54.3900 285° West 409 471 20,800 1,620 Climbing FlightAware
01:00AM 25.4990 54.3080 285° West 417 480 21,900 1,740 Climbing FlightAware
01:01AM 25.5230 54.2100 285° West 427 491 23,300 1,860 Climbing FlightAware
01:01AM 25.5430 54.1260 285° West 429 494 24,600 1,800 Climbing FlightAware
01:02AM 25.5580 54.0650 285° West 432 497 25,400 1,680 Climbing FlightAware
01:03AM 25.5790 53.9760 285° West 434 499 26,600 2,220 Climbing FlightAware
01:03AM 25.5990 53.8940 285° West 415 478 28,400 2,160 Climbing FlightAware
01:04AM 25.6180 53.8140 285° West 414 476 29,500 1,620 Climbing FlightAware
01:05AM 25.6390 53.7280 285° West 413 475 30,700 1,680 Climbing FlightAware
01:05AM 25.6570 53.6510 285° West 413 475 31,800 1,500 Climbing FlightAware
01:06AM 25.6790 53.5610 285° West 406 467 32,700 1,380 Climbing FlightAware
01:07AM 25.7000 53.4710 285° West 406 467 33,900 960 Climbing FlightAware
01:07AM 25.7190 53.3840 284° West 406 467 34,200 1,260 Climbing FlightAware
01:08AM 25.7400 53.2990 285° West 399 459 35,700 840 Climbing FlightAware
01:09AM 25.7500 53.2330 280° West 36,000 180 Climbing FlightAware
01:10AM 25.7620 53.1270 277° West 419 482 36,000  Level FlightAware
01:10AM 25.7860 53.0380 287° West 421 484 36,000  Level FlightAware
01:11AM 25.8180 52.9640 296° West 420 483 36,000  Level FlightAware
01:12AM 25.8600 52.8770 298° West 418 481 36,000  Level FlightAware
01:12AM 25.8950 52.8030 298° West 419 482 36,000  Level FlightAware
01:13AM 25.9360 52.7190 299° West 420 483 36,000  Level FlightAware
01:14AM 25.9700 52.6460 297° West 422 486 36,000  Level FlightAware
01:14AM 26.0070 52.5690 298° West 424 488 36,000  Level FlightAware
01:15AM 26.0410 52.4980 298° West 421 484 36,000  Level FlightAware
01:16AM 26.0900 52.3960 298° West 424 488 36,000  Level FlightAware
01:17AM 26.1320 52.3070 298° West 424 488 36,000  Level FlightAware
01:17AM 26.1690 52.2290 298° West 423 487 36,000  Level FlightAware
01:18AM 26.2000 52.1640 298° West 425 489 36,000  Level FlightAware
01:19AM 26.2470 52.0650 298° West 426 490 36,000  Level FlightAware
01:19AM 26.2840 51.9870 298° West 424 488 36,000  Level FlightAware
01:20AM 26.3260 51.8960 297° West 429 494 36,000  Level FlightAware
01:21AM 26.3610 51.8230 298° West 429 494 36,000  Level FlightAware
01:21AM 26.3970 51.7440 297° West 429 494 36,000  Level FlightAware
01:22AM 26.4410 51.6510 298° West 428 493 36,000  Level FlightAware
01:23AM 26.4760 51.5750 297° West 427 491 36,000  Level FlightAware
01:24AM 26.5190 51.4840 298° West 429 494 36,000  Level FlightAware
01:24AM 26.5530 51.4090 297° West 430 495 36,000  Level FlightAware
01:25AM 26.5850 51.3410 298° West 430 495 36,000  Level FlightAware
01:26AM 26.6240 51.2510 296° West 426 490 36,000  Level FlightAware
01:26AM 26.6530 51.1760 293° West 422 486 36,000  Level FlightAware
01:27AM 26.6960 51.0660 294° West 419 482 36,000  Level FlightAware
01:28AM 26.7200 51.0000 292° West 419 482 36,000  Level FlightAware
01:28AM 26.7530 50.9170 294° West 419 482 36,000  Level FlightAware
01:29AM 26.7770 50.8490 292° West 419 482 36,000  Level FlightAware
01:30AM 26.8020 50.7800 292° West 419 482 36,000  Level FlightAware
01:31AM 26.8330 50.6950 292° West 419 482 36,000  Level FlightAware
01:31AM 26.8570 50.6260 291° West 419 482 36,000  Level FlightAware
01:32AM 26.8820 50.5580 292° West 419 482 36,000  Level FlightAware
01:33AM 26.9070 50.4890 292° West 419 482 36,000  Level FlightAware
01:33AM 26.9310 50.4210 292° West 419 482 36,000  Level FlightAware
01:34AM 26.9620 50.3350 292° West 419 482 36,000  Level FlightAware
01:35AM 26.9810 50.2840 293° West 419 482 36,000  Level FlightAware
01:36AM 27.2110 49.9890 311° West 459 528 36,000  Level FlightAware
01:37AM 27.2810 49.9330 325° Northwest 460 529 36,000  Level FlightAware
01:38AM 27.3620 49.8670 324° Northwest 459 528 36,000  Level FlightAware
01:39AM 27.4570 49.7900 324° Northwest 459 528 36,000  Level FlightAware
01:39AM 27.5080 49.7490 325° Northwest 459 528 36,000  Level FlightAware
01:40AM 27.6070 49.6670 324° Northwest 460 529 36,000  Level FlightAware
01:41AM 27.6650 49.6180 323° Northwest 460 529 36,000  Level FlightAware
01:41AM 27.7230 49.5680 323° Northwest 460 529 36,000  Level FlightAware
01:42AM 27.7800 49.5190 323° Northwest 460 529 36,000  Level FlightAware
01:43AM 27.8800 49.4440 326° Northwest 459 528 36,000  Level FlightAware
01:44AM 27.9550 49.3840 325° Northwest 470 541 36,000  Level FlightAware
01:44AM 28.0270 49.3330 328° Northwest 481 554 36,000  Level FlightAware
01:45AM 28.1230 49.2750 332° Northwest 478 550 36,000  Level FlightAware
01:46AM 28.2110 49.2210 332° Northwest 474 545 36,000  Level FlightAware
01:47AM 28.3070 49.1610 331° Northwest 473 544 36,000  Level FlightAware
01:47AM 28.3760 49.1180 331° Northwest 472 543 36,000  Level FlightAware
01:48AM 28.4560 49.0600 327° Northwest 465 535 36,000  Level FlightAware
01:49AM 28.5330 49.0010 326° Northwest 463 533 36,000  Level FlightAware
01:49AM 28.5980 48.9510 326° Northwest 463 533 36,000  Level FlightAware
01:50AM 28.6890 48.8820 326° Northwest 465 535 36,000  Level FlightAware
01:51AM 28.7540 48.8310 325° Northwest 466 536 36,000  Level FlightAware
01:52AM 28.8370 48.7670 326° Northwest 467 537 36,000  Level FlightAware
01:52AM 28.9100 48.7110 326° Northwest 467 537 36,000  Level FlightAware
01:53AM 28.9900 48.6500 326° Northwest 469 540 36,000  Level FlightAware
01:54AM 29.0670 48.5910 326° Northwest 468 539 36,000  Level FlightAware
01:54AM 29.1570 48.5210 326° Northwest 467 537 36,000  Level FlightAware
01:55AM 29.2260 48.4680 326° Northwest 467 537 36,000  Level FlightAware
01:56AM 29.3120 48.4020 326° Northwest 467 537 36,000  Level FlightAware
01:57AM 29.3880 48.3430 326° Northwest 466 536 36,000  Level FlightAware
01:57AM 29.4680 48.2840 327° Northwest 468 539 36,000  Level FlightAware
01:58AM 29.5250 48.2470 331° Northwest 468 539 36,000  Level FlightAware
01:59AM 29.6150 48.1880 330° Northwest 466 536 36,000  Level FlightAware
01:59AM 29.6960 48.1350 330° Northwest 464 534 36,000  Level FlightAware
02:00AM 29.7680 48.0870 330° Northwest 464 534 36,000  Level FlightAware
02:01AM 29.8330 48.0440 330° Northwest 459 528 36,000  Level FlightAware
02:02AM 29.9240 47.9830 330° Northwest 460 529 36,000  Level FlightAware
02:02AM 30.0000 47.9270 327° Northwest 457 526 36,000  Level FlightAware
02:03AM 30.0540 47.8720 319° Northwest 454 522 36,000  Level FlightAware
02:04AM 30.1330 47.7700 312° West 455 524 36,000  Level FlightAware
02:05AM 30.1940 47.6890 311° West 457 526 36,000  Level FlightAware
02:05AM 30.2370 47.6300 310° West 457 526 36,000  Level FlightAware
02:06AM 30.3030 47.5420 311° West 458 527 36,000  Level FlightAware
02:07AM 30.3680 47.4580 312° West 459 528 36,000  Level FlightAware
02:07AM 30.4230 47.3950 315° West 460 529 36,000  Level FlightAware
02:08AM 30.4740 47.3350 315° West 460 529 36,000  Level FlightAware
02:09AM 30.5800 47.2620 329° Northwest 451 519 36,000  Level FlightAware
02:09AM 30.6350 47.2100 321° Northwest 451 519 36,000  Level FlightAware
02:10AM 30.6900 47.1580 321° Northwest 451 519 36,000  Level FlightAware
02:11AM 30.7450 47.1060 321° Northwest 451 519 36,000  Level FlightAware
02:12AM 30.8450 47.0150 322° Northwest 452 520 36,000  Level FlightAware
02:12AM 30.9010 46.9630 321° Northwest 452 520 36,000  Level FlightAware
02:13AM 30.9560 46.9110 321° Northwest 452 520 36,000  Level FlightAware
02:14AM 31.0250 46.8460 321° Northwest 452 520 36,000  Level FlightAware
02:14AM 31.0800 46.7940 321° Northwest 452 520 36,000  Level FlightAware
02:15AM 31.1350 46.7410 320° Northwest 452 520 36,000  Level FlightAware
02:16AM 31.1910 46.6890 322° Northwest 452 520 36,000  Level FlightAware
02:16AM 31.2460 46.6370 321° Northwest 452 520 36,000  Level FlightAware
02:17AM 31.3010 46.5840 321° Northwest 452 520 36,000  Level FlightAware
02:18AM 31.3700 46.5190 321° Northwest 452 520 36,000  Level FlightAware
02:19AM 31.4260 46.4670 322° Northwest 452 520 36,000  Level FlightAware
02:19AM 31.4810 46.4140 321° Northwest 452 520 36,000  Level FlightAware
02:20AM 31.5360 46.3620 321° Northwest 452 520 36,000  Level FlightAware
02:21AM 31.5910 46.3090 321° Northwest 452 520 36,000  Level FlightAware
02:23AM 31.7313 46.1194 311° West  Level Estimated
02:24AM 31.8037 46.0210 311° West  Level Estimated
02:25AM 31.8760 45.9226 311° West  Level Estimated
02:26AM 31.9483 45.8239 311° West  Level Estimated
02:27AM 32.0205 45.7252 311° West  Level Estimated
02:28AM 32.0927 45.6262 311° West  Level Estimated
02:29AM 32.1647 45.5271 311° West  Level Estimated
02:30AM 32.2367 45.4279 311° West  Level Estimated
02:31AM 32.3086 45.3285 311° West  Level Estimated
02:31AM 32.8420 45.1050 311° West 463 533 36,000  Level FlightAware
02:32AM 32.3804 45.2289 311° West  Level Estimated
02:32AM 32.9110 45.0370 320° Northwest 463 533 36,000  Level FlightAware
02:33AM 32.9850 44.9640 320° Northwest 465 535 36,000  Level FlightAware
02:34AM 33.0480 44.9010 320° Northwest 464 534 36,000  Level FlightAware
02:34AM 33.1140 44.8360 320° Northwest 462 532 36,000  Level FlightAware
02:35AM 33.1940 44.7650 323° Northwest 469 540 36,000  Level FlightAware
02:36AM 33.2720 44.7170 333° Northwest 475 547 36,000 300 Level FlightAware
02:36AM 33.3570 44.6820 341° North 483 556 36,400 660 Climbing FlightAware
02:37AM 33.4510 44.6470 343° North 474 545 37,000 720 Climbing FlightAware
02:38AM 33.5340 44.6160 343° North 471 542 37,500 660 Climbing FlightAware
02:38AM 33.6260 44.5710 338° Northwest 467 537 38,000 300 Climbing FlightAware
02:39AM 33.7030 44.5340 338° Northwest 468 539 38,000  Level FlightAware
02:40AM 33.7850 44.4930 337° Northwest 469 540 38,000  Level FlightAware
02:41AM 33.8750 44.4490 338° Northwest 468 539 38,000  Level FlightAware
02:41AM 33.9590 44.4070 337° Northwest 468 539 38,000  Level FlightAware
02:42AM 34.0330 44.3710 338° Northwest 471 542 38,000  Level FlightAware
02:43AM 34.1280 44.3230 337° Northwest 474 545 38,000  Level FlightAware
02:43AM 34.2160 44.2800 338° Northwest 475 547 38,000  Level FlightAware
02:44AM 34.3030 44.2360 337° Northwest 477 549 38,000  Level FlightAware
02:45AM 34.3930 44.1920 338° Northwest 477 549 38,000  Level FlightAware
02:45AM 34.4760 44.1500 337° Northwest 479 551 38,000  Level FlightAware
02:46AM 34.5560 44.1090 337° Northwest 479 551 38,000  Level FlightAware
02:47AM 34.6500 44.0590 336° Northwest 478 550 38,000  Level FlightAware
02:48AM 34.7280 44.0180 337° Northwest 480 552 38,000  Level FlightAware
02:48AM 34.8210 43.9700 337° Northwest 484 557 38,000  Level FlightAware
02:49AM 34.9040 43.9260 337° Northwest 485 558 38,000  Level FlightAware
02:50AM 34.9860 43.8830 337° Northwest 487 560 38,000  Level FlightAware
02:50AM 35.0820 43.8320 337° Northwest 486 559 38,000  Level FlightAware
02:51AM 35.1520 43.7940 336° Northwest 488 562 38,000  Level FlightAware
02:52AM 35.2470 43.7440 337° Northwest 493 567 38,000  Level FlightAware
02:52AM 35.3280 43.7010 337° Northwest 495 570 38,000  Level FlightAware
02:53AM 35.4230 43.6500 336° Northwest 496 571 38,000  Level FlightAware
02:54AM 35.5220 43.5980 337° Northwest 496 571 38,000  Level FlightAware
02:55AM 35.6020 43.5550 336° Northwest 495 570 38,000  Level FlightAware
02:55AM 35.6990 43.5020 336° Northwest 495 570 38,000  Level FlightAware
02:56AM 35.7840 43.4570 337° Northwest 494 568 38,000  Level FlightAware
02:57AM 35.8640 43.4140 336° Northwest 495 570 38,000  Level FlightAware
02:57AM 35.9610 43.3610 336° Northwest 497 572 38,000  Level FlightAware
02:58AM 36.0440 43.3160 336° Northwest 498 573 38,000  Level FlightAware
02:59AM 36.1410 43.2640 337° Northwest 500 575 38,000  Level FlightAware
02:59AM 36.2250 43.2170 336° Northwest 500 575 38,000  Level FlightAware
03:00AM 36.3070 43.1720 336° Northwest 502 578 38,000  Level FlightAware
03:01AM 36.4000 43.1210 336° Northwest 502 578 38,000  Level FlightAware
03:02AM 36.4870 43.0730 336° Northwest 503 579 38,000  Level FlightAware
03:02AM 36.5810 43.0200 336° Northwest 501 577 38,000  Level FlightAware
03:03AM 36.6680 42.9720 336° Northwest 500 575 38,000  Level FlightAware
03:04AM 36.7490 42.9270 336° Northwest 499 574 38,000  Level FlightAware
03:04AM 36.8440 42.8740 336° Northwest 499 574 38,000  Level FlightAware
03:05AM 36.9290 42.8270 336° Northwest 499 574 38,000  Level FlightAware
03:06AM 37.0240 42.7750 336° Northwest 499 574 38,000  Level FlightAware
03:06AM 37.0890 42.7390 336° Northwest 497 572 38,000  Level FlightAware
03:07AM 37.1590 42.7000 336° Northwest 496 571 38,000  Level FlightAware
03:07AM 37.2220 42.6580 332° Northwest 494 568 38,000  Level FlightAware
03:08AM 37.2950 42.5940 325° Northwest 490 564 38,000  Level FlightAware
03:09AM 37.3650 42.5160 318° Northwest 489 563 38,000  Level FlightAware
03:09AM 37.4330 42.4380 318° Northwest 491 565 38,000  Level FlightAware
03:10AM 37.5070 42.3520 317° Northwest 488 562 38,000  Level FlightAware
03:11AM 37.5730 42.2760 318° Northwest 490 564 38,000  Level FlightAware
03:11AM 37.6390 42.1990 317° Northwest 490 564 38,000  Level FlightAware
03:12AM 37.7120 42.1130 317° Northwest 490 564 38,000  Level FlightAware
03:13AM 37.7810 42.0330 318° Northwest 491 565 38,000  Level FlightAware
03:14AM 37.8520 41.9440 315° West 490 564 38,000  Level FlightAware
03:14AM 37.9070 41.8490 306° West 486 559 38,000  Level FlightAware
03:15AM 37.9630 41.7100 297° West 479 551 38,000  Level FlightAware
03:16AM 37.9940 41.6130 292° West 477 549 38,000  Level FlightAware
03:17AM 38.0380 41.4670 291° West 477 549 38,000  Level FlightAware
03:18AM 38.0730 41.3570 292° West 475 547 38,000  Level FlightAware
03:18AM 38.1030 41.2590 291° West 474 545 38,000  Level FlightAware
03:19AM 38.1370 41.1470 291° West 474 545 38,000  Level FlightAware
03:20AM 38.1640 41.0580 291° West 474 545 38,000  Level FlightAware
03:20AM 38.1910 40.9700 291° West 474 545 38,000  Level FlightAware
03:21AM 38.2180 40.8810 291° West 474 545 38,000  Level FlightAware
03:22AM 38.2510 40.7700 291° West 474 545 38,000  Level FlightAware
03:22AM 38.2780 40.6820 291° West 474 545 38,000  Level FlightAware
03:23AM 38.3040 40.5930 290° West 474 545 38,000  Level FlightAware
03:24AM 38.3310 40.5040 291° West 474 545 38,000  Level FlightAware
03:24AM 38.3580 40.4150 291° West 474 545 38,000  Level FlightAware
03:25AM 38.3910 40.3040 291° West 474 545 38,000  Level FlightAware
03:26AM 38.4180 40.2160 291° West 474 545 38,000  Level FlightAware
03:27AM 38.4450 40.1270 291° West 474 545 38,000  Level FlightAware
03:27AM 38.4710 40.0380 290° West 474 545 38,000  Level FlightAware
03:30AM 38.6071 39.7773 304° West  Level Estimated
03:31AM 38.6683 39.6593 304° West  Level Estimated
03:32AM 38.7294 39.5412 304° West  Level Estimated
03:33AM 38.7904 39.4229 303° West  Level Estimated
03:34AM 38.8512 39.3043 303° West  Level Estimated
03:35AM 38.9119 39.1856 303° West  Level Estimated
03:36AM 38.9726 39.0666 303° West  Level Estimated
03:37AM 39.0331 38.9474 303° West  Level Estimated
03:38AM 39.0934 38.8281 303° West  Level Estimated
03:39AM 39.1537 38.7085 303° West  Level Estimated
03:40AM 39.2138 38.5888 303° West  Level Estimated
03:41AM 39.2738 38.4688 303° West  Level Estimated
03:42AM 39.3337 38.3486 303° West  Level Estimated
03:43AM 39.3934 38.2282 303° West  Level Estimated
03:44AM 39.4530 38.1076 303° West  Level Estimated
03:45AM 39.5126 37.9868 303° West  Level Estimated
03:46AM 39.5719 37.8658 303° West  Level Estimated
03:47AM 39.6312 37.7446 302° West  Level Estimated
03:48AM 39.6903 37.6232 302° West  Level Estimated
03:49AM 39.7493 37.5016 302° West  Level Estimated
03:50AM 39.8082 37.3797 302° West  Level Estimated
03:51AM 39.8669 37.2577 302° West  Level Estimated
03:52AM 39.9256 37.1354 302° West  Level Estimated
03:53AM 39.9841 37.0130 302° West  Level Estimated
03:54AM 40.0424 36.8903 302° West  Level Estimated
03:55AM 40.1006 36.7674 302° West  Level Estimated
03:56AM 40.1587 36.6443 302° West  Level Estimated
03:57AM 40.2167 36.5210 302° West  Level Estimated
03:57AM 39.5080 35.1090 302° West 452 520 38,000  Level FlightAware
03:58AM 39.5480 35.0040 296° West 451 519 38,000  Level FlightAware
03:59AM 39.5900 34.8910 296° West 451 519 38,000  Level FlightAware
04:00AM 39.5710 34.9430 115° Southeast 446 513 38,000  Level FlightAware
04:01AM 39.6950 34.6100 296° West 445 512 38,000  Level FlightAware
04:01AM 39.7350 34.5030 296° West 441 507 38,000  Level FlightAware
04:02AM 39.7870 34.3620 296° West 442 509 38,000  Level FlightAware
04:03AM 39.8220 34.2690 296° West 442 509 38,000  Level FlightAware
04:03AM 39.8530 34.1840 295° West 441 507 38,000  Level FlightAware
04:04AM 39.8970 34.0630 295° West 441 507 38,000  Level FlightAware
04:05AM 39.9320 33.9670 295° West 440 506 38,000  Level FlightAware
04:06AM 39.9690 33.8650 295° West 437 503 38,000  Level FlightAware
04:06AM 40.0060 33.7650 296° West 437 503 38,000  Level FlightAware
04:07AM 40.0440 33.6600 295° West 436 502 38,000  Level FlightAware
04:08AM 40.0790 33.5630 295° West 436 502 38,000  Level FlightAware
04:08AM 40.1130 33.4670 295° West 434 499 38,000  Level FlightAware
04:09AM 40.1490 33.3660 295° West 430 495 38,000  Level FlightAware
04:10AM 40.1840 33.2670 295° West 433 498 38,000  Level FlightAware
04:11AM 40.2240 33.1750 300° West 436 502 38,000  Level FlightAware
04:11AM 40.2750 33.0920 309° West 440 506 38,000  Level FlightAware
04:12AM 40.3490 33.0030 318° Northwest 443 510 38,000  Level FlightAware
04:13AM 40.4160 32.9380 324° Northwest 445 512 38,000  Level FlightAware
04:13AM 40.4900 32.8660 324° Northwest 449 517 38,000  Level FlightAware
04:14AM 40.5480 32.8110 324° Northwest 449 517 38,000  Level FlightAware
04:15AM 40.6250 32.7360 324° Northwest 452 520 38,000  Level FlightAware
04:16AM 40.7000 32.6630 324° Northwest 454 522 38,000  Level FlightAware
04:16AM 40.7680 32.5970 324° Northwest 454 522 38,000  Level FlightAware
04:17AM 40.8330 32.5330 323° Northwest 451 519 38,000  Level FlightAware
04:18AM 40.9090 32.4580 323° Northwest 451 519 38,000  Level FlightAware
04:18AM 40.9860 32.3830 324° Northwest 454 522 38,000  Level FlightAware
04:19AM 41.0340 32.3350 323° Northwest 453 521 38,000  Level FlightAware
04:20AM 41.1160 32.2550 324° Northwest 451 519 38,000  Level FlightAware
04:20AM 41.1920 32.1800 323° Northwest 450 518 38,000  Level FlightAware
04:21AM 41.2610 32.1110 323° Northwest 450 518 38,000  Level FlightAware
04:22AM 41.3250 32.0470 323° Northwest 443 510 38,000  Level FlightAware
04:23AM 41.3970 31.9750 323° Northwest 441 507 38,000  Level FlightAware
04:23AM 41.4660 31.9060 323° Northwest 442 509 38,000  Level FlightAware
04:24AM 41.5390 31.8330 323° Northwest 443 510 38,000  Level FlightAware
04:25AM 41.5970 31.7750 323° Northwest 444 511 38,000  Level FlightAware
04:25AM 41.6740 31.6950 322° Northwest 445 512 38,000  Level FlightAware
04:26AM 41.7290 31.6380 322° Northwest 445 512 38,000  Level FlightAware
04:27AM 41.7840 31.5800 322° Northwest 445 512 38,000  Level FlightAware
04:27AM 41.8390 31.5220 322° Northwest 445 512 38,000  Level FlightAware
04:28AM 41.8950 31.4640 322° Northwest 445 512 38,000  Level FlightAware
04:29AM 41.9640 31.3920 322° Northwest 445 512 38,000  Level FlightAware
04:30AM 42.1340 31.2270 324° Northwest 450 518 38,000  Level FlightAware
04:31AM 42.1960 31.1620 322° Northwest 450 518 38,000  Level FlightAware
04:31AM 42.2620 31.0950 323° Northwest 449 517 38,000  Level FlightAware
04:32AM 42.3430 31.0110 323° Northwest 447 514 38,000  Level FlightAware
04:33AM 42.4020 30.9490 322° Northwest 448 516 38,000  Level FlightAware
04:34AM 42.4690 30.8790 322° Northwest 448 516 38,000  Level FlightAware
04:34AM 42.5250 30.8200 322° Northwest 448 516 38,000  Level FlightAware
04:35AM 42.6310 30.7090 322° Northwest 449 517 38,000  Level FlightAware
04:36AM 42.6870 30.6500 322° Northwest 449 517 38,000  Level FlightAware
04:37AM 42.7510 30.5370 308° West 443 510 38,000  Level FlightAware
04:37AM 42.8090 30.4560 314° West 443 510 38,000  Level FlightAware
04:38AM 42.8640 30.3780 314° West 441 507 38,000  Level FlightAware
04:39AM 42.9290 30.2880 315° West 438 504 38,000  Level FlightAware
04:39AM 42.9850 30.2100 314° West 438 504 38,000  Level FlightAware
04:40AM 43.0410 30.1300 314° West 438 504 38,000  Level FlightAware
04:41AM 43.0890 30.0620 314° West 438 504 38,000  Level FlightAware
04:41AM 43.1480 29.9770 314° West 438 504 38,000  Level FlightAware
04:42AM 43.2290 29.8620 314° West 445 512 38,000  Level FlightAware
04:43AM 43.2860 29.7810 314° West 447 514 38,000  Level FlightAware
04:44AM 43.3470 29.6940 314° West 447 514 38,000  Level FlightAware
04:44AM 43.4280 29.5780 314° West 450 518 38,000  Level FlightAware
04:45AM 43.4800 29.5030 314° West 452 520 38,000  Level FlightAware
04:46AM 43.5490 29.4030 314° West 452 520 38,000  Level FlightAware
04:46AM 43.6000 29.3290 314° West 452 520 38,000  Level FlightAware
04:47AM 43.6510 29.2540 313° West 452 520 38,000  Level FlightAware
04:48AM 43.7170 29.1580 314° West 451 519 38,000  Level FlightAware
04:49AM 43.7840 29.0600 313° West 451 519 38,000  Level FlightAware
04:50AM 43.8610 28.9470 313° West 449 517 38,000  Level FlightAware
04:50AM 43.9310 28.8430 313° West 450 518 38,000  Level FlightAware
04:51AM 43.9860 28.7620 313° West 452 520 38,000  Level FlightAware
04:52AM 44.0500 28.6660 313° West 451 519 38,000  Level FlightAware
04:53AM 44.1270 28.5510 313° West 450 518 38,000  Level FlightAware
04:53AM 44.1870 28.4620 313° West 450 518 38,000  Level FlightAware
04:54AM 44.2460 28.3730 313° West 449 517 38,000  Level FlightAware
04:55AM 44.3060 28.2820 313° West 447 514 38,000  Level FlightAware
04:55AM 44.3600 28.2010 313° West 445 512 38,000  Level FlightAware
04:56AM 44.4100 28.1250 313° West 446 513 38,000  Level FlightAware
04:57AM 44.4770 28.0240 313° West 448 516 38,000  Level FlightAware
04:57AM 44.5360 27.9330 312° West 446 513 38,000  Level FlightAware
04:58AM 44.6010 27.8340 313° West 445 512 38,000  Level FlightAware
04:59AM 44.6580 27.7460 312° West 445 512 38,000  Level FlightAware
05:00AM 44.7160 27.6580 313° West 445 512 38,000  Level FlightAware
05:01AM 44.7890 27.5440 312° West 446 513 38,000  Level FlightAware
05:01AM 44.8560 27.4400 312° West 447 514 38,000  Level FlightAware
05:02AM 44.9180 27.3430 312° West 446 513 38,000  Level FlightAware
05:03AM 44.9870 27.2360 312° West 448 516 38,000  Level FlightAware
05:04AM 45.0470 27.1420 312° West 450 518 38,000  Level FlightAware
05:04AM 45.1030 27.0530 312° West 451 519 38,000  Level FlightAware
05:05AM 45.1820 26.9280 312° West 452 520 38,000  Level FlightAware
05:06AM 45.2400 26.8360 312° West 451 519 38,000  Level FlightAware
05:07AM 45.3090 26.7260 312° West 449 517 38,000  Level FlightAware
05:07AM 45.3700 26.6280 312° West 449 517 38,000  Level FlightAware
05:08AM 45.4300 26.5330 312° West 452 520 38,000  Level FlightAware
05:09AM 45.5310 26.3700 312° West 454 522 38,000  Level FlightAware
05:10AM 45.5900 26.2740 311° West 454 522 38,000  Level FlightAware
05:11AM 45.6500 26.1770 312° West 454 522 38,000  Level FlightAware
05:12AM 45.7120 26.0760 311° West 455 524 38,000  Level FlightAware
05:12AM 45.7620 25.9940 311° West 455 524 38,000  Level FlightAware
05:13AM 45.8150 25.9070 311° West 456 525 38,000  Level FlightAware
05:14AM 45.8800 25.7990 311° West 457 526 38,000  Level FlightAware
05:14AM 45.9440 25.6940 311° West 460 529 38,000  Level FlightAware
05:15AM 46.0030 25.5950 311° West 460 529 38,000  Level FlightAware
05:16AM 46.0580 25.5040 311° West 461 531 38,000  Level FlightAware
05:16AM 46.1160 25.4070 311° West 461 531 38,000  Level FlightAware
05:17AM 46.1750 25.3090 311° West 463 533 38,000  Level FlightAware
05:18AM 46.2310 25.2130 310° West 466 536 38,000  Level FlightAware
05:18AM 46.2870 25.1190 311° West 465 535 38,000  Level FlightAware
05:19AM 46.3420 25.0250 310° West 465 535 38,000  Level FlightAware
05:20AM 46.4010 24.9270 311° West 465 535 38,000  Level FlightAware
05:20AM 46.4540 24.8360 310° West 463 533 38,000  Level FlightAware
05:21AM 46.5210 24.7200 310° West 463 533 38,000  Level FlightAware
05:22AM 46.5870 24.6060 310° West 461 531 38,000  Level FlightAware
05:23AM 46.6430 24.5110 311° West 459 528 38,000  Level FlightAware
05:23AM 46.6890 24.4300 310° West 460 529 38,000  Level FlightAware
05:24AM 46.7540 24.3180 310° West 462 532 38,000  Level FlightAware
05:25AM 46.8100 24.2200 310° West 464 534 38,000  Level FlightAware
05:26AM 46.8710 24.1130 310° West 467 537 38,000  Level FlightAware
05:26AM 46.9270 24.0140 310° West 465 535 38,000  Level FlightAware
05:27AM 46.9790 23.9220 310° West 465 535 38,000  Level FlightAware
05:28AM 47.0390 23.8160 310° West 463 533 38,000  Level FlightAware
05:28AM 47.0940 23.7180 310° West 462 532 38,000  Level FlightAware
05:29AM 47.1580 23.6030 309° West 459 528 38,000  Level FlightAware
05:30AM 47.2090 23.5120 310° West 457 526 38,000  Level FlightAware
05:30AM 47.2650 23.4120 310° West 456 525 38,000  Level FlightAware
05:31AM 47.3120 23.3040 303° West 455 524 38,000  Level FlightAware
05:32AM 47.3560 23.2040 303° West 455 524 38,000  Level FlightAware
05:32AM 47.4030 23.0960 303° West 454 522 38,000  Level FlightAware
05:33AM 47.4580 22.9700 303° West 455 524 38,000  Level FlightAware
05:34AM 47.5040 22.8630 303° West 457 526 38,000  Level FlightAware
05:35AM 47.5530 22.7500 303° West 457 526 38,000  Level FlightAware
05:35AM 47.5990 22.6410 302° West 456 525 38,000  Level FlightAware
05:36AM 47.6500 22.5220 302° West 458 527 38,000  Level FlightAware
05:37AM 47.6950 22.4150 302° West 459 528 38,000  Level FlightAware
05:37AM 47.7450 22.2930 301° West 457 526 38,000  Level FlightAware
05:38AM 47.7900 22.1770 300° West 455 524 38,000  Level FlightAware
05:39AM 47.8320 22.0670 300° West 454 522 38,000  Level FlightAware
05:39AM 47.8740 21.9600 300° West 453 521 38,000  Level FlightAware
05:40AM 47.9210 21.8380 300° West 454 522 38,000  Level FlightAware
05:41AM 47.9620 21.7320 300° West 455 524 38,000  Level FlightAware
05:42AM 48.0100 21.6090 300° West 453 521 38,000  Level FlightAware
05:42AM 48.0520 21.4990 300° West 453 521 38,000  Level FlightAware
05:43AM 48.0970 21.3810 300° West 451 519 38,000  Level FlightAware
05:44AM 48.1380 21.2710 299° West 454 522 38,000  Level FlightAware
05:44AM 48.1860 21.1460 300° West 453 521 38,000  Level FlightAware
05:45AM 48.2270 21.0360 299° West 453 521 38,000  Level FlightAware
05:46AM 48.2680 20.9260 299° West 451 519 38,000  Level FlightAware
05:47AM 48.3120 20.8070 299° West 452 520 38,000  Level FlightAware
05:47AM 48.3530 20.6960 299° West 453 521 38,000  Level FlightAware
05:48AM 48.3890 20.6000 299° West 455 524 38,000  Level FlightAware
05:48AM 48.4270 20.4970 299° West 457 526 38,000  Level FlightAware
05:49AM 48.4840 20.3420 299° West 454 522 38,000  Level FlightAware
05:50AM 48.5240 20.2300 298° West 453 521 38,000  Level FlightAware
05:51AM 48.5640 20.1220 299° West 450 518 38,000  Level FlightAware
05:51AM 48.6100 19.9940 299° West 451 519 38,000  Level FlightAware
05:52AM 48.6500 19.8840 299° West 452 520 38,000  Level FlightAware
05:53AM 48.6950 19.7560 298° West 453 521 38,000  Level FlightAware
05:54AM 48.7350 19.6440 298° West 453 521 38,000  Level FlightAware
05:54AM 48.7810 19.5150 298° West 455 524 38,000  Level FlightAware
05:55AM 48.8200 19.4040 298° West 456 525 38,000  Level FlightAware
05:56AM 48.8590 19.2880 297° West 453 521 38,000  Level FlightAware
05:56AM 48.8840 19.1670 287° West 452 520 38,000  Level FlightAware
05:57AM 48.9130 19.0320 288° West 450 518 38,000  Level FlightAware
05:58AM 48.9380 18.9110 288° West 452 520 38,000  Level FlightAware
05:58AM 48.9650 18.7750 287° West 454 522 38,000  Level FlightAware
05:59AM 48.9900 18.6530 287° West 450 518 38,000  Level FlightAware
06:00AM 49.0180 18.5170 287° West 445 512 38,000  Level FlightAware
06:01AM 49.0420 18.3970 287° West 445 512 38,000  Level FlightAware
06:01AM 49.0660 18.2770 287° West 447 514 38,000  Level FlightAware
06:02AM 49.0920 18.1440 287° West 448 516 38,000  Level FlightAware
06:03AM 49.1170 18.0210 287° West 448 516 38,000  Level FlightAware
06:03AM 49.1430 17.8860 286° West 450 518 38,000  Level FlightAware
06:04AM 49.1670 17.7610 286° West 452 520 38,000  Level FlightAware
06:05AM 49.1850 17.6710 287° West 452 520 38,000  Level FlightAware
06:05AM 49.2090 17.5480 287° West 451 519 38,000  Level FlightAware
06:06AM 49.2350 17.4120 286° West 447 514 38,000  Level FlightAware
06:07AM 49.2580 17.2910 286° West 447 514 38,000  Level FlightAware
06:07AM 49.2810 17.1670 286° West 449 517 38,000  Level FlightAware
06:08AM 49.3070 17.0290 286° West 450 518 38,000  Level FlightAware
06:09AM 49.3300 16.9060 286° West 451 519 38,000  Level FlightAware
06:09AM 49.3560 16.7660 286° West 451 519 38,000  Level FlightAware
06:10AM 49.3790 16.6420 286° West 450 518 38,000  Level FlightAware
06:11AM 49.3960 16.5440 285° West 449 517 38,000  Level FlightAware
06:12AM 49.4260 16.3810 286° West 449 517 38,000  Level FlightAware
06:12AM 49.4480 16.2600 286° West 450 518 38,000  Level FlightAware
06:13AM 49.4730 16.1160 285° West 447 514 38,000  Level FlightAware
06:14AM 49.4950 15.9930 285° West 448 516 38,000  Level FlightAware
06:14AM 49.5170 15.8700 285° West 448 516 38,000  Level FlightAware
06:15AM 49.5400 15.7340 285° West 447 514 38,000  Level FlightAware
06:16AM 49.5600 15.6210 285° West 448 516 38,000  Level FlightAware
06:16AM 49.5850 15.4730 285° West 447 514 38,000  Level FlightAware
06:17AM 49.6060 15.3540 285° West 447 514 38,000  Level FlightAware
06:18AM 49.6270 15.2320 285° West 446 513 38,000  Level FlightAware
06:19AM 49.6500 15.0950 285° West 446 513 38,000  Level FlightAware
06:19AM 49.6700 14.9740 284° West 446 513 38,000  Level FlightAware
06:20AM 49.6940 14.8280 284° West 447 514 38,000  Level FlightAware
06:21AM 49.7150 14.7020 284° West 447 514 38,000  Level FlightAware
06:21AM 49.7350 14.5780 284° West 447 514 38,000  Level FlightAware
06:22AM 49.7570 14.4440 284° West 446 513 38,000  Level FlightAware
06:23AM 49.7760 14.3200 283° West 444 511 38,000  Level FlightAware
06:23AM 49.7990 14.1820 285° West 441 507 38,000  Level FlightAware
06:24AM 49.8190 14.0550 284° West 440 506 38,000  Level FlightAware
06:25AM 49.8370 13.9390 284° West 439 505 38,000  Level FlightAware
06:26AM 49.8580 13.8000 283° West 440 506 38,000  Level FlightAware
06:26AM 49.8770 13.6780 284° West 440 506 38,000  Level FlightAware
06:27AM 49.8990 13.5370 284° West 442 509 38,000  Level FlightAware
06:28AM 49.9170 13.4190 283° West 439 505 38,000  Level FlightAware
06:28AM 49.9360 13.2930 283° West 437 503 38,000  Level FlightAware
06:29AM 49.9560 13.1570 283° West 439 505 38,000  Level FlightAware
06:30AM 49.9720 13.0510 283° West 441 507 38,000  Level FlightAware
06:30AM 49.9940 12.8990 283° West 439 505 38,000  Level FlightAware
06:31AM 50.0130 12.7700 283° West 438 504 38,000  Level FlightAware
06:32AM 50.0310 12.6440 283° West 440 506 38,000  Level FlightAware
06:33AM 50.0380 12.5090 275° West 443 510 38,000  Level FlightAware
06:33AM 50.0400 12.3810 271° West 441 507 38,000  Level FlightAware
06:34AM 50.0430 12.2620 272° West 439 505 38,000  Level FlightAware
06:35AM 50.0460 12.1340 272° West 440 506 38,000  Level FlightAware
06:35AM 50.0480 11.9810 271° West 437 503 38,000  Level FlightAware
06:36AM 50.0510 11.8450 272° West 440 506 38,000  Level FlightAware
06:37AM 50.0530 11.7390 272° West 440 506 38,000  Level FlightAware
06:37AM 50.0550 11.6060 271° West 435 501 38,000  Level FlightAware
06:38AM 50.0570 11.4560 271° West 433 498 38,000  Level FlightAware
06:39AM 50.0590 11.3200 271° West 435 501 38,000  Level FlightAware
06:39AM 50.0600 11.2210 271° West 437 503 38,000  Level FlightAware
06:40AM 50.0620 11.0640 271° West 438 504 38,000  Level FlightAware
06:41AM 50.0630 10.9280 271° West 435 501 38,000  Level FlightAware
06:42AM 50.0640 10.8010 271° West 432 497 38,000  Level FlightAware
06:42AM 50.0650 10.6790 271° West 431 496 38,000  Level FlightAware
06:43AM 50.0660 10.5380 271° West 433 498 38,000  Level FlightAware
06:44AM 50.0660 10.4150 270° West 433 498 38,000  Level FlightAware
06:44AM 50.0670 10.2920 271° West 431 496 38,000  Level FlightAware
06:45AM 50.0670 10.1510 270° West 432 497 38,000  Level FlightAware
06:46AM 50.0680 10.0250 271° West 434 499 38,000  Level FlightAware
06:46AM 50.0680 9.9270 270° West 434 499 38,000  Level FlightAware
06:47AM 50.0680 9.7690 270° West 434 499 38,000  Level FlightAware
06:48AM 50.0670 9.5740 270° West 434 499 38,000  Level FlightAware
06:49AM 50.0670 9.4560 270° West 435 501 38,000  Level FlightAware
06:50AM 50.0650 9.3340 269° West 435 501 38,000  Level FlightAware
06:50AM 50.0640 9.2420 269° West 432 497 38,000  Level FlightAware
06:51AM 50.0620 9.1000 269° West 430 495 38,000  Level FlightAware
06:51AM 50.0600 8.9830 269° West 432 497 38,000  Level FlightAware
06:52AM 50.0570 8.8370 268° West 431 496 38,000  Level FlightAware
06:53AM 50.0550 8.7140 269° West 428 493 38,000  Level FlightAware
06:54AM 50.0530 8.5880 269° West 425 489 38,000  Level FlightAware
06:54AM 50.0520 8.4550 269° West 424 488 38,000  Level FlightAware
06:55AM 50.0460 8.3330 266° West 425 489 38,000  Level FlightAware
06:56AM 50.0280 8.2050 258° West 428 493 38,000  Level FlightAware
06:56AM 50.0110 8.0790 258° West 428 493 38,000  Level FlightAware
06:57AM 49.9930 7.9430 258° West 426 490 38,000  Level FlightAware
06:58AM 49.9780 7.8260 259° West 424 488 38,000  Level FlightAware
06:58AM 49.9620 7.7090 258° West 423 487 38,000  Level FlightAware
06:59AM 49.9430 7.5700 258° West 424 488 38,000  Level FlightAware
07:00AM 49.9260 7.4510 258° West 425 489 38,000  Level FlightAware
07:01AM 49.9070 7.3170 258° West 426 490 38,000  Level FlightAware
07:01AM 49.8910 7.2030 258° West 428 493 38,000  Level FlightAware
07:02AM 49.8740 7.0790 258° West 428 493 38,000  Level FlightAware
07:03AM 49.8550 6.9500 257° West 430 495 38,000 -300 Level FlightAware
07:03AM 49.8370 6.8220 258° West 424 488 37,600 -780 Descending FlightAware
07:04AM 49.8200 6.7080 257° West 420 483 37,000 -900 Descending FlightAware
07:05AM 49.8030 6.5880 258° West 411 473 36,400 -720 Descending FlightAware
07:05AM 49.7850 6.4670 257° West 410 472 36,000 -300 Descending FlightAware
07:06AM 49.7660 6.3430 257° West 410 472 36,000  Level FlightAware
07:07AM 49.7480 6.2190 257° West 408 470 36,000  Level FlightAware
07:08AM 49.7300 6.1010 257° West 409 471 36,000  Level FlightAware
07:08AM 49.7110 5.9790 257° West 413 475 36,000 -360 Level FlightAware
07:09AM 49.6930 5.8590 257° West 412 474 35,500 -1,380 Descending FlightAware
07:10AM 49.6740 5.7350 257° West 410 472 34,100 -1,920 Descending FlightAware
07:10AM 49.6560 5.6210 256° West 398 458 32,800 -2,040 Descending FlightAware
07:11AM 49.6390 5.5100 257° West 388 447 31,400 -1,680 Descending FlightAware
07:12AM 49.6200 5.3910 256° West 384 442 30,500 -1,200 Descending FlightAware
07:12AM 49.6130 5.3020 263° West 373 429 29,900 -1,140 Descending FlightAware
07:13AM 49.6050 5.2130 262° West 372 428 29,300 -1,020 Descending FlightAware
07:14AM 49.5950 5.1040 262° West 369 425 28,600 -1,200 Descending FlightAware
07:15AM 49.5810 4.9610 261° West 366 421 27,300 -1,620 Descending FlightAware
07:15AM 49.5710 4.8460 262° West 362 417 25,900 -1,800 Descending FlightAware
07:17AM 49.5430 4.5550 262° West 358 412 22,700 -1,740 Descending FlightAware
07:18AM 49.5330 4.4550 261° West 354 407 21,600 -1,740 Descending FlightAware
07:19AM 49.5220 4.3440 261° West 347 399 20,300 -1,800 Descending FlightAware
07:19AM 49.5130 4.2430 262° West 344 396 19,100 -1,740 Descending FlightAware
07:20AM 49.5020 4.1370 261° West 340 391 17,900 -1,680 Descending FlightAware
07:21AM 49.4920 4.0430 261° West 335 386 16,800 -1,680 Descending FlightAware
07:21AM 49.4830 3.9490 262° West 335 386 15,700 -1,680 Descending FlightAware
07:22AM 49.4720 3.8420 261° West 333 383 14,500 -1,560 Descending FlightAware
07:23AM 49.4630 3.7550 261° West 329 379 13,500 -1,500 Descending FlightAware
07:23AM 49.4520 3.6490 261° West 325 374 12,400 -1,320 Descending FlightAware
07:24AM 49.4410 3.5930 253° West 314 361 12,000 -780 Descending FlightAware
07:24AM 49.4290 3.5730 227° Southwest 312 359 11,900 -600 Descending FlightAware
07:25AM 49.3820 3.5220 215° Southwest 285 328 11,500 -660 Descending FlightAware
07:26AM 49.3330 3.4720 214° Southwest 270 311 11,000 -1,080 Descending FlightAware
07:26AM 49.2940 3.4300 215° Southwest 274 315 10,000 -1,440 Descending FlightAware
07:26AM 49.2770 3.4130 213° Southwest 275 316 9,700 -1,500 Descending FlightAware
07:27AM 49.2450 3.3790 215° Southwest 272 313 8,900 -1,680 Descending FlightAware
07:27AM 49.2200 3.3520 215° Southwest 260 299 8,200 -1,560 Descending FlightAware
07:28AM 49.1910 3.3190 217° Southwest 262 302 7,500 -1,380 Descending FlightAware
07:28AM 49.1780 3.3030 219° Southwest 260 299 7,200 -1,200 Descending FlightAware
07:29AM 49.1570 3.2670 228° Southwest 252 290 6,700 -900 Descending FlightAware
07:29AM 49.1330 3.2280 227° Southwest 247 284 6,400 -540 Descending FlightAware
07:30AM 49.1100 3.1890 228° Southwest 246 283 6,200 -480 Descending FlightAware
07:30AM 49.0920 3.1590 228° Southwest 247 284 6,000 -600 Descending FlightAware
07:30AM 49.0690 3.1200 228° Southwest 243 280 5,700 -660 Descending FlightAware
07:31AM 49.0490 3.0880 226° Southwest 240 276 5,400 -660 Descending FlightAware
07:31AM 49.0270 3.0500 229° Southwest 244 281 5,100 -540 Descending FlightAware
07:32AM 49.0190 3.0290 240° Southwest 238 274 5,000 -420 Descending FlightAware
07:32AM 49.0160 3.0040 260° West 228 262 4,900 -300 Descending FlightAware
07:32AM 49.0140 2.9660 265° West 214 246 4,800 -360 Descending FlightAware
07:33AM 49.0120 2.9240 266° West 204 235 4,600 -600 Descending FlightAware
07:33AM 49.0100 2.8890 265° West 197 227 4,300 -900 Descending FlightAware
07:33AM 49.0090 2.8680 266° West 196 226 4,000 -1,080 Descending FlightAware
07:34AM 49.0070 2.8280 266° West 188 216 3,500 -1,140 Descending FlightAware
07:34AM 49.0050 2.7930 265° West 181 208 3,000 -1,140 Descending FlightAware
07:35AM 49.0030 2.7570 265° West 167 192 2,500 -900 Descending FlightAware
07:35AM 49.0010 2.7240 265° West 148 170 2,100 -780 Descending FlightAware
07:36AM 49.0000 2.7030 266° West 130 150 1,800 -780 Descending FlightAware
07:36AM 48.9987 2.6753 266° West 132 152 1,500 -840 Descending FlightAware ADS-B
07:36AM 48.9981 2.6632 266° West 130 150 1,300 -720 Descending FlightAware ADS-B
07:37AM 48.9975 2.6520 265° West 130 150 1,200 -720 Descending FlightAware ADS-B
07:37AM 48.9967 2.6377 265° West 131 151 1,000 -720 Descending FlightAware ADS-B
07:37AM 48.9963 2.6288 266° West 132 152 900 -720 Descending FlightAware ADS-B
07:37AM 48.9955 2.6151 265° West 131 151 700 -840 Descending FlightAware ADS-B